Starlink 32949

operational
NORAD ID: 63145 Int'l Des: 2025-043 Owner: SPXS Country: US Constellation: starlink
LEOCIRCULAR

About Starlink 32949

Description loading...

Live Position

Loading 3D Globe...

Upcoming Passes

Altitude History

Altitude vs Time

uPlot chart will show altitude changes over time

Two-Line Element Set

1 63145U 25043P 25304.58094388 .00051637 00000-0 18696-2 0 9996
2 63145 42.9966 25.6415 0001143 270.9017 89.1704 15.27637284 38189
Epoch: Oct 31, 2025 • Age: 22 hours

Current Status

Altitude 486.5 km
Velocity 7.63 km/s
Sub-Earth Point 43.11°N, 112.14°W
Launch Date Mar 3, 2025
Age 0.6 years
Type internet

Technical Details

Classification Payload
Mass 730.00 kg
Dry Mass 700.00 kg
Total Mass 730.00 kg
Length 0.30 m
Diameter 4.10 m
Span 29.00 m
Shape Box + pan
Manufacturer SPXS
Bus Type Starlink V2M
Phase Status In Orbit
Owner/State SPXS/US

Large Constellations

Loading constellations...